Jackpot

Texas Poker Multi Jackpot System

Kini Telah hadir Jackpot SUPER ROYAL FLUSH

Kini Telah hadir Jackpot 2000 (khusus table VIP keatas).

Ikutilah global jackpot yang tersedia di system kami, dengan system jackpot terbaru dan pertama di indonesia, anda dapat membeli jackpot dengan harga 100 rupiah saja dan menangkan hadiahnya hingga puluhan juta rupiah.

Jackpot bukanlah suatu keharusan untuk dibeli, namun kami memberikan suatu fitur tambahan untuk member tercinta dari www.inidewa.me.

Terdapat tiga pilihan harga jackpot yang bisa anda beli yaitu :100,500,1000 dan 2000(khusus table VIP Keatas) rupiah.

Hadiah dari Multi jackpot system www.inidewa.me

  1. full house x 10 harga jackpot yang anda beli.
      (contoh:anda membeli 1000 maka:1000 X10 = 10.000)
  2. four of kind x 250 harga jackpot yang anda beli
      (contoh:anda membeli 1000 maka:1000 X250 = 250.000)
  3. Straight flush x 1200
      (contoh:anda membeli 1000 maka:1000 X1200 = 1.200.000)
  4. Royal flush x 10000 harga jackpot yang anda beli
      (contoh:anda membeli 1000 maka:1000 X10000 = 10.000.000)
  5. SUPER ROYAL FLUSH x 30000 harga jackpot yang anda beli
      (contoh:anda membeli 1000 maka:1000 X30000 = 30.000.000)

Kondisi kartu

  1. full house adalah kondisi kartu dimana kartu anda dan kartu tengah dengan total 7 kartu bisa mendapatkan nilai 5 kartu dengan kombinasi 1 tris(three of kind) dan 1 pair, contoh 3 kartu 10 dan 2 kartu 5
  2. Four of kind adalah kondisi kartu dimana kartu anda dan kartu tengah dengan total 7 kartu bisa mendapatkan nilai 5 kartu dengan kombinasi 4 kartu yang sama jumlah dan 1 kartu apapun juga contoh anda mendapatkan 4 buah kartu angka 3 dan 1 kartu apapun.
  3. Staright flush adalah kondisi kartu dimana kartu anda dan kartu tengah dengan total 7 kartu bisa mendapatkan nilai 5 kartu dengan kombinasi seri / staright dengan kembang yang sama contoh : urutan kartu dari angka 5, 6, 7, 8 , 9 10 dengan kembang yg sama misalnya as hati
  4. Royal flush adalah kondisi kartu dimana kartu anda dan kartu tengah dengan total 7 kartu bisa mendapatkan nilai 5 kartu dengan kombinasi seri / staright dengan kembang yang sama tetapi kartu tersebut haruslah dimulai dari 10. contoh 10, Queen, Jack, King dan aces dengan kembang yang sama
  5. Super Royal flush adalah kondisi kartu dimana Kedua kartu anda digabung dengan 3 kartu pertama meja haruslah royal flush. contoh kartu anda 10,Queen kembang sama dan 3 kartu pertama meja adalah Jack, King dan aces dengan kembang yang sama

Demikian adalah penjelasan dari Multi Jackpot www.inidewa.me terima kasih dan selamat bermain salam hoki dari kami

Texas Poker Jackpot Winner

TOP SUPER ROYAL FLUSH
No.TanggalNamaPriceWin
124/04 13:14FU54MCK2AZSuper Royal flush15,000,000
224/04 12:17CAHMP21Super Royal flush15,000,000
324/04 06:44PUTRIYANTISuper Royal flush3,000,000
424/04 05:15ALEXXXENSuper Royal flush15,000,000
524/04 02:42A553K0P868Super Royal flush1,500,000
TOP ROYAL FLUSH
No.TanggalNamaPriceWin
124/04 19:30DJIWENK79Royal flush2,000,000
224/04 19:26ERDLUCKRoyal flush1,000,000
324/04 19:06LEMON009Royal flush2,000,000
424/04 18:47N1NONGRoyal flush2,000,000
524/04 18:23RAJAWALI99Royal flush5,000,000
TOP STRAIGHT FLUSH
No.TanggalNamaPriceWin
124/04 19:40SARMUN88Straight Flush1,200,000
224/04 19:40SLOTCAR77Straight Flush2,400,000
324/04 19:40B0527FCDStraight Flush240,000
424/04 19:29TUYUL_AS_KStraight Flush600,000
524/04 19:28DWBTWA1997Straight Flush240,000
LATEST JACKPOT
No.TanggalNamaPriceWin
124/04 19:40FCB6E586Full House1,000
224/04 19:40POMPA_TARIFull House1,000
324/04 19:40SARMAN46Full House2,000
424/04 19:40EJI7KQB60BFull House20,000
524/04 19:40D0B9309FFull House10,000
624/04 19:40TRADINGFFull House2,000
724/04 19:40EHHMMFull House5,000
824/04 19:40BATAIIIFull House1,000
924/04 19:40JOMAN97Full House2,000
1024/04 19:40TELOR108Full House2,000
1124/04 19:40GOODDEVILFull House1,000
1224/04 19:40B3RK4H54Y4Full House5,000
1324/04 19:40MERANGAWIFull House2,000
1424/04 19:40TOM3NFull House2,000
1524/04 19:40BHAL_TOT68Full House5,000
1624/04 19:40VONIX55Full House2,000
1724/04 19:40MOVIEFour Of A Kind50,000
1824/04 19:40SARMUN88Straight Flush1,200,000
1924/04 19:40D3631DDFFull House2,000
2024/04 19:40NAI555Full House2,000
2124/04 19:40FAFD2C0AFull House2,000
2224/04 19:40SLOTCAR77Straight Flush2,400,000
2324/04 19:40BAONGSFull House5,000
2424/04 19:40XXXJITOFull House2,000
2524/04 19:40MR_REY01Full House1,000
2624/04 19:40E2WPYWHZRTFull House2,000
2724/04 19:40E2D3A06AFull House5,000
2824/04 19:40MR_JAVAROFull House2,000
2924/04 19:40MINAH42Full House2,000
3024/04 19:40UPIK7Full House10,000
3124/04 19:40DWBTHOKY49Full House2,000
3224/04 19:40A2ZYVJFPWKFull House10,000
3324/04 19:40BAGUSAJIWOFull House2,000
3424/04 19:40MR_J88Full House2,000
3524/04 19:40CODET420Full House10,000
3624/04 19:40ERNAWANFull House2,000
3724/04 19:40TEMPEWUDHOFull House1,000
3824/04 19:40DPTSABUFull House2,000
3924/04 19:40DREAMZZFour Of A Kind250,000
4024/04 19:40REZEKY52Full House2,000
4124/04 19:40B0527FCDStraight Flush240,000
4224/04 19:40BALLOCKFull House2,000
4324/04 19:40P45HA12Full House2,000
4424/04 19:40KETAM18Full House2,000
4524/04 19:40PUKOIMA87Full House2,000
4624/04 19:40SHADIQINFull House5,000
4724/04 19:40ELCCFull House10,000
4824/04 19:40JOY1111Full House10,000
4924/04 19:40KUKUKU9Full House5,000
5024/04 19:40EEFC1B0BFour Of A Kind125,000

Domino Multi Jackpot System

Ikutilah global jackpot yang tersedia di system kami, dengan system jackpot terbaru dan pertama di indonesia, anda dapat membeli jackpot dengan harga 100 rupiah saja dan menangkan hadiahnya hingga puluhan juta rupiah.

Jackpot bukanlah suatu keharusan untuk dibeli, namun kami memberikan suatu fitur tambahan untuk member tercinta dari www.inidewa.me.

Terdapat tiga pilihan harga jackpot yang bisa anda beli yaitu :100,500 dan 1000 rupiah.

Hadiah dari Multi jackpot system www.inidewa.me

  1. Murni Kecil x 50 harga jackpot yang anda beli.
      (contoh:anda membeli 1000 maka:1000 X 50 = 50.000)
  2. Murni Besar x 50 harga jackpot yang anda beli
      (contoh:anda membeli 1000 maka:1000 X 50 = 50.000)
  3. BALAK x 100 harga jackpot yang anda beli
      (contoh:anda membeli 1000 maka:1000 X 100 = 100.000)
  4. ENAM DEWA x 6666 harga jackpot yang anda beli
      (contoh:anda membeli 1000 maka:1000 X 6666 = 6.666.000)

Demikian adalah penjelasan dari Multi Jackpot www.inidewa.me terima kasih dan selamat bermain salam hoki dari kami

Domino Jackpot Winner

TOP ENAM DEWA
No.TanggalNamaPriceWin
124/04 17:34TUMIS123murni enam6,666,000
224/04 11:56ARIF8877murni enam6,666,000
324/04 09:30MANTAP23murni enam3,333,000
424/04 08:52BHARA41murni enam6,666,000
524/04 08:45METHA991murni enam666,600
TOP BALAK
No.TanggalNamaPriceWin
124/04 19:38RAKH4Abalak50,000
224/04 19:35HOMUDWYI34balak100,000
324/04 19:33WEW12323balak50,000
424/04 19:33PAREZAbalak10,000
524/04 19:33THENGULLLLbalak50,000
LATEST JACKPOT
No.TanggalNamaPriceWin
124/04 19:40SIDE72murni besar50,000
224/04 19:39SAPI68murni kecil50,000
324/04 19:38RAKH4Abalak50,000
424/04 19:38KUNYIK99lucky9910,000
524/04 19:38QQEKO99murni kecil50,000
624/04 19:37FARIDBmurni kecil25,000
724/04 19:36B4B4D027murni kecil25,000
824/04 19:36THENGULLLLmurni kecil25,000
924/04 19:36NIRIBASmurni besar50,000
1024/04 19:36FOX96murni kecil50,000
1124/04 19:35MASCEKmurni kecil25,000
1224/04 19:35HOMUDWYI34balak100,000
1324/04 19:35INDRAPKQ99murni kecil50,000
1424/04 19:34GEPOW123lucky9910,000
1524/04 19:34MZ1R90DBO8murni besar5,000
1624/04 19:34MACHE234murni besar5,000
1724/04 19:34SONYAP85murni besar5,000
1824/04 19:34PR4K0S0murni kecil50,000
1924/04 19:33WEW12323balak50,000
2024/04 19:33PAREZAbalak10,000
2124/04 19:33FARI71murni besar25,000
2224/04 19:33THENGULLLLbalak50,000
2324/04 19:33DEGLE909murni besar25,000
2424/04 19:33AAL_JUNIORmurni kecil50,000
2524/04 19:32DN4DKOMANGmurni kecil50,000
2624/04 19:31JI3NK94murni kecil25,000
2724/04 19:31KCC23FGM3Fmurni besar25,000
2824/04 19:31KALEMJAEmurni besar50,000
2924/04 19:29HOMUDWYI34murni besar50,000
3024/04 19:29TGMJAYAOKmurni besar50,000
3124/04 19:29DAJAL093murni besar5,000
3224/04 19:29MALKOMmurni kecil50,000
3324/04 19:29SING_HASILmurni besar50,000
3424/04 19:28PBV160murni besar50,000
3524/04 19:28M70EUDRHQ7murni besar50,000
3624/04 19:2612324_murni kecil50,000
3724/04 19:26VANHOUTENbalak50,000
3824/04 19:26ALOHA9balak10,000
3924/04 19:25QQEKO99murni kecil50,000
4024/04 19:25DDB84DA8murni kecil25,000
4124/04 19:24LK4DX0M0M4Dbalak50,000
4224/04 19:24KCC23FGM3Fmurni besar25,000
4324/04 19:24MUSARObalak100,000
4424/04 19:23CIMLEXbalak100,000
4524/04 19:22WWN1975murni kecil25,000
4624/04 19:22MUSAROmurni besar50,000
4724/04 19:22Z6666POTlucky9910,000
4824/04 19:22DAPAH66murni besar5,000
4924/04 19:22B5D11murni kecil50,000
5024/04 19:21WWN1975balak50,000

Ceme Multi Jackpot System

Jackpot dilihat dari gabungan kartu pemain dengan kartu bandar. Bandar harus membeli jackpot sebanyak jumlah player yang sedang duduk. Sebagai contoh bila terdapat 3 pemain duduk bermain, dan bandar memutuskan untuk membeli jackpot Rp 1.000, maka pada periode tersebut bandar akan membeli jackpot sebanyak 3xRp1.000 = Rp3.000.

Jackpot bukanlah suatu keharusan untuk dibeli, namun kami memberikan suatu fitur tambahan untuk member tercinta dari www.inidewa.me.

Terdapat tiga pilihan harga jackpot yang bisa anda beli yaitu :100,500 dan 1000 rupiah.

Hadiah dari Multi jackpot system www.inidewa.me

  1. Murni Kecil x 50 harga jackpot yang anda beli.
      (contoh:anda membeli 1000 maka:1000 X 50 = 50.000)
  2. Murni Besar x 50 harga jackpot yang anda beli
      (contoh:anda membeli 1000 maka:1000 X 50 = 50.000)
  3. BALAK x 200 harga jackpot yang anda beli
      (contoh:anda membeli 1000 maka:1000 X 200 = 200.000)
  4. ENAM DEWA x 6666 harga jackpot yang anda beli
      (contoh:anda membeli 1000 maka:1000 X 6666 = 6.666.000)

Demikian adalah penjelasan dari Multi Jackpot www.inidewa.me terima kasih dan selamat bermain salam hoki dari kami

Ceme Jackpot Winner

TOP ENAM DEWA
No.TanggalNamaPriceWin
124/04 19:35D_1_Smurni enam666,600
224/04 19:24JAYAA789murni enam6,666,000
324/04 19:24BOGIE72murni enam6,666,000
424/04 19:07ALVINMAHMUmurni enam6,666,000
524/04 19:07MADAFAKACHESSmurni enam6,666,000
TOP BALAK
No.TanggalNamaPriceWin
124/04 19:40SOTKI88balak100,000
224/04 19:40TOMBES39balak200,000
324/04 19:40TONI8889balak200,000
424/04 19:39BAZILL82balak200,000
524/04 19:39KISS08balak20,000
LATEST JACKPOT
No.TanggalNamaPriceWin
124/04 19:40DIMASK2murni besar5,000
224/04 19:40ISTINAGEAmurni besar5,000
324/04 19:40SOTKI88balak100,000
424/04 19:40BESEK78murni kecil50,000
524/04 19:40RYLIMmurni besar50,000
624/04 19:40DJEMBOAT21murni kecil25,000
724/04 19:40DIHYA0502murni kecil50,000
824/04 19:40FAUZINAmurni kecil25,000
924/04 19:40UCOK6699murni kecil50,000
1024/04 19:40TOMBES39balak200,000
1124/04 19:40TONI8889balak200,000
1224/04 19:39RGFQGIJC71murni kecil50,000
1324/04 19:39ARIEYULIA9murni kecil50,000
1424/04 19:39HEYEX17murni kecil50,000
1524/04 19:39FIVENmurni kecil5,000
1624/04 19:39AADDAIWA78murni kecil25,000
1724/04 19:39BAZILL82balak200,000
1824/04 19:39RY825A5J5Emurni besar50,000
1924/04 19:39ZENN999murni besar5,000
2024/04 19:39KISS08balak20,000
2124/04 19:39LCMILDbalak200,000
2224/04 19:39JON1388murni kecil5,000
2324/04 19:39DUDUK2122murni besar5,000
2424/04 19:39NDLOGOK45murni besar5,000
2524/04 19:38KPM2balak200,000
2624/04 19:38FAHO32murni besar50,000
2724/04 19:38TURBO07murni besar25,000
2824/04 19:38BHANDIT2balak200,000
2924/04 19:38MUJUR699balak200,000
3024/04 19:38N9UT4N9murni besar5,000
3124/04 19:38JULIA_11balak20,000
3224/04 19:38RICHI8888murni besar50,000
3324/04 19:38DENBAGUS94murni kecil50,000
3424/04 19:38ESNITAmurni kecil25,000
3524/04 19:38FITRIDHY77murni besar50,000
3624/04 19:38PAYPAY22murni kecil5,000
3724/04 19:38TARMIDI09murni besar25,000
3824/04 19:38TNT19murni besar50,000
3924/04 19:38ANDRIAN08murni besar25,000
4024/04 19:38DIDA022murni besar50,000
4124/04 19:38CELAKA_12murni besar5,000
4224/04 19:37FE7F1310murni besar50,000
4324/04 19:37ANEH932murni kecil25,000
4424/04 19:37TOBOT90murni kecil50,000
4524/04 19:37INDRA10000murni kecil25,000
4624/04 19:37MUBAS78murni kecil50,000
4724/04 19:37BHANDIT2murni kecil50,000
4824/04 19:37T0NG0Gmurni kecil5,000
4924/04 19:37ORTEGA8790murni kecil50,000
5024/04 19:37F4KIR45murni kecil50,000